Weather History for Casper, WY

Change the Weather History Date:

Thursday, February 7, 2013

  Actual Average Record
Temperature  
Mean Temperature 30 °F 25 °F  
Max Temperature 44 °F 36 °F 59 °F (1963)
Min Temperature 16 °F 15 °F -16 °F (1971)
Degree Days  
Heating Degree Days 35 40  
Month to date heating degree days 221 280  
Since 1 July heating degree days 4172 4657  
Cooling Degree Days 0 0  
Month to date cooling degree days 0 0  
Year to date cooling degree days 0 0  
Moisture  
Dew Point 11 °F    
Average Humidity 54    
Maximum Humidity 84    
Minimum Humidity 23    
Precipitation  
Precipitation 0.00 in 0.02 in 0.18 in (1940)
Month to date precipitation T 0.13  
Year to date precipitation 0.27 0.64  
Snow  
Snow 0.00 in 0.40 in - ()
Month to date snowfall T 2.4  
Since 1 July snowfall 23.2 42.0  
Snow Depth 0.00 in    
Sea Level Pressure  
Sea Level Pressure 30.10 in    
Wind  
Wind Speed 13 mph (SW)    
Max Wind Speed 30 mph    
Max Gust Speed 37 mph    
Visibility 10 miles    
Events      
T = Trace of Precipitation, MM = Missing Value Source: NWS Daily Summary

Daily Weather History Graph

Daily Weather History Graph

Search for Another Location

Airport:

Trip Planner

Search our weather history database for the weather conditions in past years. The results will help you decide how hot, cold, wet, or windy it might be!

Date:

Astronomy

Feb. 07, 2013 Rise Set
Actual Time 7:13 AM MST 5:27 PM MST
Civil Twilight 6:43 AM MST 5:56 PM MST
Nautical Twilight 6:10 AM MST 6:30 PM MST
Astronomical Twilight 5:37 AM MST 7:03 PM MST
Moon 4:57 AM MST (2/7) 2:52 PM MST (2/7)
Length of Visible Light 11h 13m
Length of Day
10h 13m
Waning Crescent, 8% of the Moon is Illuminated
Feb 7
Waning Crescent
Feb 10
New
Feb 17
First Quarter
Feb 25
Full
Mar 4
Last Quarter

Hourly Weather History & Observations

Time (MST) Temp. Windchill Dew Point Humidity Pressure Visibility Wind Dir Wind Speed Gust Speed Precip Events Conditions
12:53 AM 21.9 °F 17.2 °F 17.1 °F 82% 30.14 in - West 3.5 mph - N/A   Mostly Cloudy
1:53 AM 17.1 °F 7.6 °F 12.9 °F 84% 30.15 in - WSW 6.9 mph - N/A   Clear
2:53 AM 19.9 °F 9.3 °F 15.1 °F 81% 30.15 in - WSW 9.2 mph - N/A   Clear
3:53 AM 19.9 °F 9.3 °F 16.0 °F 85% 30.15 in - WSW 9.2 mph - N/A   Partly Cloudy
4:53 AM 23.0 °F 12.4 °F 17.1 °F 78% 30.15 in - SW 10.4 mph - N/A   Clear
5:53 AM 21.9 °F 10.4 °F 15.1 °F 75% 30.19 in - SW 11.5 mph - N/A   Clear
6:53 AM 19.9 °F 6.2 °F 12.9 °F 74% 30.22 in 10.0 mi SW 15.0 mph - N/A   Clear
7:53 AM 19.9 °F 8.6 °F 12.0 °F 71% 30.24 in 10.0 mi WSW 10.4 mph - N/A   Clear
8:53 AM 28.0 °F 14.9 °F 14.0 °F 56% 30.21 in 10.0 mi SSW 19.6 mph 25.3 mph N/A   Clear
9:53 AM 32.0 °F 18.1 °F 12.9 °F 45% 30.17 in 10.0 mi SW 27.6 mph 33.4 mph N/A   Clear
10:53 AM 36.0 °F 25.0 °F 10.9 °F 36% 30.15 in 10.0 mi SSW 20.7 mph 28.8 mph N/A   Clear
11:53 AM 39.9 °F 29.2 °F 9.0 °F 28% 30.11 in 10.0 mi SSW 25.3 mph 33.4 mph N/A   Clear
12:53 PM 41.0 °F 31.1 °F 7.0 °F 25% 30.08 in 10.0 mi SSW 23.0 mph 32.2 mph N/A   Clear
1:53 PM 41.0 °F 31.1 °F 9.0 °F 27% 30.08 in 10.0 mi SW 23.0 mph 31.1 mph N/A   Clear
2:53 PM 42.1 °F 34.2 °F 8.1 °F 25% 30.04 in 10.0 mi SW 16.1 mph 25.3 mph N/A   Clear
3:53 PM 41.0 °F 32.8 °F 10.0 °F 28% 30.03 in 10.0 mi SW 16.1 mph 26.5 mph N/A   Clear
4:53 PM 39.0 °F 30.3 °F 8.1 °F 28% 30.02 in 10.0 mi SSW 16.1 mph 24.2 mph N/A   Clear
5:53 PM 34.0 °F 25.5 °F 8.1 °F 34% 30.04 in 10.0 mi SW 11.5 mph - N/A   Clear
6:53 PM 34.0 °F 27.2 °F 7.0 °F 32% 30.06 in 10.0 mi SSW 8.1 mph - N/A   Clear
7:53 PM 34.0 °F - 7.0 °F 32% 30.05 in 10.0 mi Calm Calm - N/A   Clear
8:53 PM 33.1 °F 24.9 °F 7.0 °F 34% 30.01 in 10.0 mi WSW 10.4 mph - N/A   Clear
10:53 PM 30.0 °F 22.4 °F 8.1 °F 40% 29.98 in 10.0 mi WNW 8.1 mph - N/A   Clear
11:53 PM 27.0 °F 18.0 °F 7.0 °F 43% 29.97 in 10.0 mi West 9.2 mph - N/A   Clear